Location: Altoona
(40.5167°N, 78.4000°W)
Time: 18:34:59
(UTC-04:00)

Daily predictions for brighter satellites

Satellite Brightness Start Highest point End
(mag) Time Altitude Azimuth Time Altitude Azimuth Time Altitude Azimuth
Cosmos 1634 Rocket 4.1 20:27:01 10° S 20:33:15 67° E 20:39:32 10° NNE
Abrixas rocket 4.3 20:30:50 10° WNW 20:33:41 26° NNW 20:36:32 10° NE
Cosmos 1092 Rocket 4.1 20:27:29 10° N 20:33:52 85° E 20:40:13 10° S
Helios 1A 3.8 20:30:48 10° SE 20:34:36 33° ENE 20:38:26 10° N
Cosmos 1869 Rocket 4.1 20:32:39 10° NNW 20:37:07 67° W 20:41:32 10° S
CZ-3B DEB 3.8 20:36:54 10° W 20:38:34 12° WSW 20:39:56 10° SW
ERBS 3.5 20:38:59 10° WNW 20:42:15 40° SW 20:45:32 10° SSE
USA 186 1.6 20:41:13 10° SSE 20:43:56 53° ENE 20:46:51 10° N
ERS-1 Rocket 4.4 20:42:24 10° ESE 20:46:01 20° ENE 20:49:38 10° NNE
CZ-4B DEB 3.9 20:44:29 10° SE 20:47:03 25° ENE 20:49:36 10° NNE
Resurs 1-3 3.7 20:43:10 10° SSE 20:47:33 85° WSW 20:51:58 10° NNW
Cosmos 1862 3.9 20:45:13 10° N 20:49:02 39° ENE 20:52:50 10° SSE
YAOGAN 6 4.4 20:47:03 10° ESE 20:49:17 16° ENE 20:51:36 10° NNE
Cosmos 1455 4.0 20:47:50 10° SSW 20:51:21 36° WNW 20:54:52 10° N
Cosmos 1655 Rocket 4.2 20:45:41 10° N 20:51:59 56° E 20:58:12 10° SSE
Meteor 2-10 Rocket 4.4 20:52:04 10° SSE 20:57:15 34° E 21:02:24 10° NNE
USA 229 DEB 4.2 20:52:55 10° S 20:58:54 34° ESE 21:05:00 10° NE
USA 229 4.2 20:53:03 10° S 20:59:01 34° ESE 21:05:06 10° NE
Cosmos 2242 Rocket 3.7 21:00:22 10° S 21:04:52 83° W 21:09:23 10° N
Cosmos 1939 Rocket 3.1 21:04:38 12° SSE 21:08:11 50° ENE 21:12:04 10° N
Cosmos 1992 Rocket 4.0 21:04:39 10° SSW 21:09:53 88° ESE 21:15:09 10° NNE
Cosmos 2279 Rocket 3.9 21:04:39 10° S 21:10:52 77° E 21:17:06 10° N
Intercosmos 25 Rocket 3.3 21:09:29 10° SSW 21:12:40 75° W 21:16:51 10° N
SPOT 5 4.5 21:11:25 14° E 21:13:27 18° ENE 21:16:34 10° NNE
Cosmos 2263 Rocket 2.1 21:10:28 10° NNW 21:16:04 83° ENE 21:20:53 14° SSE
Atlas Centaur 2 3.4 21:11:44 10° SW 21:17:43 35° S 21:22:34 18° ESE
Lacrosse 4 Rocket 2.6 21:17:06 10° NW 21:21:11 41° WSW 21:25:20 10° S
Helios 1B rocket 2.5 21:17:12 10° N 21:21:18 80° WNW 21:25:24 10° SSW
Cosmos 1428 Rocket 4.4 21:18:54 10° N 21:25:03 87° E 21:31:10 10° S
Cosmos 2322 Rocket 3.2 21:20:17 10° SW 21:25:42 50° WNW 21:31:11 10° NNE
USA 267 4.4 21:19:55 10° NE 21:26:06 46° NNW 21:32:16 10° WSW
Resurs 01 Rocket 3.6 21:22:21 10° SSW 21:26:09 28° W 21:29:59 10° NW
SAR-Lupe-4 4.3 21:27:54 10° S 21:31:19 51° W 21:34:51 10° NNW
COSMOS 2428 3.4 21:29:07 17° SSE 21:32:39 32° ESE 21:37:39 10° NE
CZ-4C R/B 4.4 21:28:39 10° NNW 21:33:48 21° NE 21:39:16 10° E
Cosmos 2360 Rocket 2.1 21:28:20 10° SSW 21:33:57 76° ESE 21:39:39 10° NNE
Cosmos 1825 3.8 21:30:58 10° NNW 21:34:25 33° W 21:37:51 10° SSW
OAO 3 Rocket 4.0 21:34:13 10° WSW 21:38:43 37° S 21:40:29 28° SSE
Meteor 1-14 Rocket 4.4 21:35:46 10° N 21:41:21 56° ENE 21:44:26 27° SE
Cosmos 1908 Rocket 3.4 21:38:37 10° N 21:42:58 74° E 21:45:05 29° SSE
Sich 1 Rocket 3.5 21:40:04 10° N 21:44:34 77° E 21:46:55 28° SSE
Cosmos 968 Rocket 3.4 21:40:26 10° NNW 21:45:40 81° ENE 21:48:27 28° SSE
NOAA 11 4.4 21:43:48 28° SE 21:46:27 52° ENE 21:51:46 10° N
Cosmos 2322 3.6 21:43:29 10° SSW 21:49:12 86° ESE 21:54:57 10° NNE
ATLAS 5 CENTAUR R/B 2.5 21:43:49 10° NW 21:49:53 82° WSW 21:53:36 28° SSE
SL-16 R/B 4.2 21:50:57 10° WSW 21:55:54 30° WNW 22:00:53 10° N
Cosmos 1782 Rocket 3.6 21:53:06 10° N 21:57:27 61° E 21:58:28 46° SE
ARGOS 3.5 21:56:21 35° ESE 21:58:09 49° ENE 22:03:20 10° N
Meteor 1-20 Rocket 4.5 21:52:53 10° N 21:58:19 50° ENE 22:00:07 37° SE
Cosmos 1867 3.6 21:53:27 10° NW 21:58:55 79° WSW 22:01:17 35° SSE
Envisat 4.2 21:54:39 10° SSW 21:59:24 39° W 22:04:09 10° NNW
USA 234 3.2 21:56:41 30° SE 22:00:12 84° SW 22:06:47 10° NW
H-2A R/B 2.9 21:59:46 29° E 22:00:34 30° ENE 22:04:51 10° N
USA 245 4.3 21:59:27 37° SE 22:01:21 53° ENE 22:06:08 10° N
Terra 3.6 22:01:51 17° ENE 22:02:06 17° ENE 22:05:12 10° NNE
Okean 2 Rocket 3.1 22:05:03 10° N 22:09:32 59° E 22:10:03 55° ESE
Okean 1-7 2.9 22:08:38 50° S 22:09:42 77° E 22:14:08 10° N
Abrixas rocket 4.4 22:08:38 10° NW 22:11:12 20° N 22:12:18 17° NNE
Cosmos 2333 4.2 22:08:24 28° S 22:11:20 61° ESE 22:17:02 10° NNE
Cosmos 2237 Rocket 3.9 22:14:05 18° ENE 22:14:05 18° ENE 22:16:11 10° NE
Cosmos 2333 Rocket 3.2 22:13:24 29° E 22:13:24 29° E 22:17:22 10° NE
Cosmos 2278 Rocket 3.5 22:11:55 10° N 22:16:34 25° NE 22:17:43 24° ENE
Cosmos 1844 Rocket 2.8 22:12:34 10° NNW 22:18:05 58° ENE 22:19:16 48° ESE
YAOGAN 6 4.2 22:21:30 25° SW 22:22:36 30° W 22:25:50 10° NW
ERS-1 Rocket 3.7 22:22:04 27° SSW 22:24:25 48° W 22:29:18 10° NNW
Nimbus 7 Rocket 4.3 22:19:37 10° NNE 22:25:34 70° ESE 22:27:31 44° S
MetOp-A 4.3 22:25:28 39° S 22:27:23 67° WSW 22:32:44 10° NNW
SeaSat 1 2.4 22:27:56 60° ESE 22:28:32 67° ENE 22:33:26 10° NNW
Milstar 3 4.2 22:26:26 10° WSW 22:31:22 20° SSW 22:31:42 19° SSW
Cosmos 1782 3.1 22:36:14 62° N 22:36:14 62° N 22:39:37 10° N
Cosmos 2219 Rocket 2.0 22:37:34 65° ESE 22:37:42 65° ESE 22:43:16 10° NNE
Cosmos 2151 Rocket 4.0 22:39:15 10° N 22:42:57 56° NNE 22:42:57 56° NNE
NOSS 3-1 (C) 3.2 22:42:31 54° S 22:43:50 75° ESE 22:50:13 10° NE
SPOT 1/Viking Rocket 3.5 22:47:40 72° SSW 22:48:10 79° WSW 22:53:24 10° NNW
SPOT 5 3.4 22:50:39 46° WSW 22:51:12 48° W 22:55:42 10° NNW
Meteor 1-27 Rocket 3.8 22:53:16 61° ENE 22:53:16 61° ENE 22:58:23 10° NNE
NOSS 3-1 (A) 3.3 23:00:30 67° E 23:00:30 67° E 23:06:20 10° NE
NOSS 0 Rocket 3.8 23:01:37 70° E 23:01:37 70° E 23:07:27 10° NNE
ASTEX 1 3.6 23:02:21 64° NNE 23:02:21 64° NNE 23:06:40 10° N
Cosmos 1633 4.5 23:02:51 10° N 23:04:45 29° NNW 23:04:45 29° NNW
Atlas Centaur 2 3.7 22:59:57 10° WSW 23:05:13 35° SSW 23:05:13 35° SSW
H-2A R/B 3.1 23:14:15 44° NNW 23:14:15 44° NNW 23:17:17 10° NNW
COSMOS 2428 4.1 23:11:36 10° SW 23:16:48 36° WNW 23:22:03 10° N
Cosmos 1553 Rocket 3.9 23:17:12 74° SW 23:17:42 80° W 23:23:57 10° N
Meteor 1-11 Rocket 3.7 23:13:23 10° N 23:18:30 76° NNW 23:18:30 76° NNW
SL-08 R/B 4.3 23:13:52 10° N 23:20:01 80° W 23:20:08 79° WSW
CZ-4C R/B 2.8 23:16:19 10° NNW 23:23:31 74° NE 23:24:27 66° ESE
Cosmos 1980 3.9 23:28:48 67° N 23:28:48 67° N 23:33:46 10° NNE
Cosmos 1844 4.4 23:24:53 10° NW 23:29:52 46° W 23:29:52 46° W
ATLAS 3B R/B 4.3 23:26:05 10° NNW 23:31:27 23° NE 23:33:56 19° ENE
SL-16 R/B 3.7 23:36:36 26° NE 23:36:36 26° NE 23:39:12 10° NE
Terra 3.0 23:40:44 39° NW 23:40:44 39° NW 23:44:05 10° NNW
H-2A R/B 3.4 23:40:23 29° W 23:40:23 29° W 23:44:15 10° NW
